Content
SEND FEEDBACK

Daily
Averages
Monthly
Summary
Canada

QUEBEC CITY, QUEBEC


Home > North America > Canada > Quebec
Elevation: 239 feet     Latitude: 46 48N     Longitude: 071 23W

WEATHER
 
SELECT A DAY
Number of Records: 192,552;   Date Range: 6/30/96 - 8/27/14
 
SHARE

PRINT THIS DATA

[ ← Previous Day ]
WEATHER ALMANAC - JANUARY 4, 2013
[ Next Day → ]
[ °C ]   °F
Weather ElementAverageHighLow
Temperature12.5 °F27 °F (7:00 pm)-2.2 °F (1:00 am)
Dewpoint5.3 °F25 °F (7:00 pm)-9.4 °F (1:00 am)
Humidity81.6 %93 % (4:00 pm)66 % (2:00 am)
Wind Speed6.2 mph17.3 mph (1:27 pm)
Wind Gust20.7 mph (2:00 pm)
Weather ElementAverage
Visibility2.4 mi
Wind DirectionWNW (298.1 °)

Weather ElementTotal
Precipitation---
Heating Degree Days52.6 (Base 65)
Averaged from 45 records on January 4, 2013
WEATHER CONDITIONS BREAKOUT
WIND DIRECTION BREAKOUT
WEATHER BY HOUR - JANUARY 4, 2013
[ °C ]   °F
Local TimeTemperatureDewpointHumidityBarometerVisibilityWind DirectionWind SpeedGust SpeedPrecipitationEventsConditions
1:00 AM-1.0 °F-5.0 °F72 %29.86 inCalm
1:00 AM-2.2 °F-9.4 °F71 %29.86 in3.0 miCalmSnowLight Snow
2:00 AM-0.4 °F-9.4 °F66 %29.85 in3.0 miCalmSnowLight Snow
3:00 AM-0.4 °F-7.6 °F72 %29.83 in4.0 miCalmSnowLight Snow
4:00 AM-0.4 °F-5.8 °F78 %29.81 in6.0 miWest (270°)4.6 mphSnowLight Snow
4:00 AM1.0 °F-3.0 °F77 %29.81 inWest (260°)3.5 mph
4:33 AM1.4 °F0.0 °F2.0 miCalmSnowLight Snow
5:00 AM1.4 °F-4.0 °F78 %29.79 in6.0 miSW (220°)5.8 mphSnowLight Snow
6:00 AM3.2 °F-4.0 °F72 %29.80 in1.5 miWSW (240°)9.2 mphSnowLight Snow
6:33 AM3.2 °F0.0 °F1.2 miWSW (240°)10.4 mphSnowLight Snow
7:00 AM3.2 °F-4.0 °F72 %29.77 in1.2 miWSW (240°)8.1 mphSnowLight Snow
7:00 AM4.0 °F0.0 °F76 %29.77 inWSW (240°)5.8 mph
7:25 AM3.2 °F0.0 °F1.0 miWSW (250°)6.9 mphSnowLight Snow
7:33 AM3.2 °F0.0 °F0.0 mi8.1 (2013°)0.00 inLight Snow250
8:00 AM3.2 °F-4.0 °F72 %29.75 in0.8 miWSW (240°)6.9 mphSnowLight Snow
9:00 AM5.0 °F-2.2 °F72 %29.72 in0.5 miNW (310°)2.3 mphSnowSnow
9:39 AM6.8 °F0.0 °F0.0 miCalm (2013°)0.00 inLight Snow0
10:00 AM6.8 °F-0.4 °F72 %29.68 in0.8 miNorth (360°)2.3 mphSnowLight Snow
10:00 AM6.0 °F3.0 °F80 %29.68 inNNW (330°)3.5 mph
11:00 AM6.8 °F1.4 °F79 %29.65 in0.8 miCalmSnowLight Snow
11:28 AM8.6 °F0.0 °F1.0 miCalmSnowLight Snow
12:00 PM10.4 °F6.8 °F85 %29.61 in1.2 miSW (230°)5.8 mphSnowLight Snow
1:00 PM14.0 °F10.4 °F86 %29.57 in1.2 miSW (230°)16.1 mphSnowLight Snow
1:00 PM15.0 °F13.0 °F86 %29.57 inWSW (240°)9.2 mph
1:27 PM15.8 °F0.0 °F1.8 miSW (230°)17.3 mphSnowLight Snow
1:43 PM15.8 °F0.0 °F2.5 miWSW (240°)16.1 mphSnowLight Snow
2:00 PM17.6 °F14.0 °F86 %29.57 in5.0 miWSW (240°)13.8 mph20.7 mphSnowLight Snow
2:34 PM17.6 °F0.0 °F4.0 miWSW (240°)12.7 mphSnowLight Snow
3:00 PM17.6 °F14.0 °F86 %29.59 in5.0 miSW (220°)11.5 mphSnowLight Snow
3:39 PM19.4 °F0.0 °F1.0 miSW (220°)8.1 mphSnowLight Snow
3:43 PM19.4 °F0.0 °F2.0 miSW (220°)8.1 mphSnowLight Snow
4:00 PM20.0 °F18.0 °F90 %29.59 inSSW (200°)6.9 mph
4:00 PM19.4 °F17.6 °F93 %29.59 in1.5 miSSW (200°)6.9 mphSnowLight Snow
5:00 PM21.2 °F19.4 °F93 %29.61 in4.0 miSSW (210°)2.3 mphSnowLight Snow
6:00 PM23.0 °F19.4 °F86 %29.62 in4.0 miNorth (360°)2.3 mphSnowLight Snow
7:00 PM27.0 °F25.0 °F88 %29.62 inWest (280°)10.4 mph
7:00 PM24.8 °F21.2 °F86 %29.63 in5.0 miWest (270°)8.1 mphSnowLight Snow
8:00 PM24.8 °F23.0 °F93 %29.63 in5.0 miWest (270°)8.1 mphSnowLight Snow
8:21 PM24.8 °F0.0 °F1.0 miWest (280°)8.1 mphSnowLight Snow
8:51 PM24.8 °F0.0 °F4.0 miWest (270°)2.3 mphSnowLight Snow
9:00 PM24.8 °F23.0 °F93 %29.62 in5.0 miWest (270°)3.5 mphSnowLight Snow
10:00 PM26.0 °F24.0 °F91 %29.60 inWSW (250°)1.2 mph
10:00 PM26.6 °F23.0 °F86 %29.60 in2.0 miWSW (250°)5.8 mphSnowLight Snow
10:34 PM24.8 °F0.0 °F1.0 miWSW (240°)6.9 mphSnowLight Snow
11:00 PM24.8 °F23.0 °F93 %29.58 in1.5 miSW (230°)6.9 mphSnowLight Snow
Hourly data recorded from CYQB, located miles away from Quebec City, Quebec







STORIES FROM OUR PARTNERS